This demonstration page uses our WeatherBlox Daily Observations layout. Learn more.

Left ArrowRight Arrow

39.08367, -84.50855

Hourly Observations for June 13, 2015

Temp ( °F °C ) Dew Point ( °F °C ) Humidity (%) Winds ( mph kmh ) Pressure ( in mb ) Visibility ( mi km ) Precip ( " mm )
12:53 am 00:53 Clear with Rain 70 21.1 69 20.6 97 97 SW 3 6 29.99 1016 10 16 N/A
1:53 am 01:53 Clear with Rain 70 21.1 69 20.6 97 97 SW 3 6 29.99 1016 9 14 N/A
2:53 am 02:53 Clear with Rain 70 21.1 69 20.6 97 97 N N/A 29.97 1015 9 14 N/A
3:53 am 03:53 Clear with Rain 69 20.6 68 20 96 96 N N/A 29.97 1015 5 8 N/A
4:15 am 04:15 Clear with Rain 68 20 68 20 100 100 N N/A 29.97 1015 2 3 N/A
4:35 am 04:35 Clear with Rain 68 20 68 20 100 100 N N/A 29.97 1015 3 4 N/A
4:42 am 04:42 Clear with Rain 68 20 68 20 100 100 N N/A 29.97 1015 1 1 N/A
4:53 am 04:53 Clear with Rain 68 20 68 20 100 100 N N/A 29.98 1015 1 1 N/A
5:05 am 05:05 Mostly Cloudy with Rain 67 19.4 67 19.4 100 100 N N/A 29.97 1015 0 0 N/A
5:23 am 05:23 Partly Cloudy with Rain 67 19.4 67 19.4 100 100 N N/A 29.97 1015 0 0 N/A
5:30 am 05:30 Mostly Cloudy with Rain 68 20 68 20 100 100 N N/A 29.97 1015 1 2 N/A
5:33 am 05:33 Mostly Cloudy with Rain 68 20 68 20 100 100 N N/A 29.97 1015 3 5 N/A
5:53 am 05:53 Cloudy with Rain 68 20 68 20 100 100 N N/A 29.99 1016 4 6 N/A
6:53 am 06:53 Mostly Cloudy 69 20.6 69 20.6 100 100 N N/A 30.01 1016 10 16 N/A
7:53 am 07:53 Partly Cloudy 73 22.8 71 21.7 94 94 N N/A 30.02 1017 10 16 0.01 0.25
8:53 am 08:53 Mostly Cloudy 77 25 73 22.8 88 88 S 3 6 30.04 1017 10 16 N/A
9:53 am 09:53 Mostly Sunny 80 26.7 73 22.8 79 79 SW 7 11 30.05 1018 10 16 N/A
10:53 am 10:53 Mostly Sunny 83 28.3 74 23.3 74 74 VRB 7 11 30.05 1018 10 16 N/A
11:53 am 11:53 Partly Cloudy 84 28.9 74 23.3 72 72 W 8 13 30.06 1018 10 16 N/A
12:53 pm 12:53 Mostly Cloudy 85 29.4 72 22.2 65 65 SW 10 17 30.05 1018 10 16 N/A
1:53 pm 13:53 Partly Cloudy 86 30 73 22.8 65 65 SSW 13 20 30.02 1017 10 16 N/A
2:53 pm 14:53 Partly Cloudy 88 31.1 72 22.2 59 59 SSW 13 20 30.00 1016 10 16 N/A
3:53 pm 15:53 Mostly Sunny 88 31.1 71 21.7 57 57 SSW 9 15 29.98 1015 10 16 N/A
4:53 pm 16:53 Partly Cloudy 86 30 71 21.7 61 61 SSW 12 19 29.98 1015 10 16 N/A
5:53 pm 17:53 Sunny 87 30.6 70 21.1 57 57 SSW 12 19 29.98 1015 10 16 N/A
6:53 pm 18:53 Mostly Sunny 87 30.6 69 20.6 55 55 SSW 14 22 29.97 1015 10 16 N/A
7:53 pm 19:53 Mostly Sunny 85 29.4 68 20 57 57 SW 12 19 29.97 1015 10 16 N/A
8:53 pm 20:53 Mostly Sunny 83 28.3 68 20 61 61 SSW 8 13 29.99 1016 10 16 N/A
9:53 pm 21:53 Partly Cloudy 78 25.6 69 20.6 74 74 S 5 7 30.02 1017 10 16 N/A
10:53 pm 22:53 Mostly Clear 80 26.7 70 21.1 71 71 SSW 13 20 30.04 1017 10 16 N/A
11:53 pm 23:53 Clear 79 26.1 70 21.1 74 74 SSW 7 11 30.04 1017 10 16 N/A

Powered by AerisWeather